Flag for Venezuela Weather past 2 weeks in Barquisimeto, Venezuela

Now
72 °F

Fog.


Feels Like: 71 °F
Forecast: 67 / 93 °F
Wind: 6 mph from Southeast

Location: Barquisimeto Airport

Current Time: Jul 30, 2015 at 10:14:04 AM

Latest Report: Jul 30, 2015 at 9:30 AM


Visibility: 4 mi

Pressure: 30.07 "Hg (28.15 "Hg at 569m altitude)

Humidity: 83%

Dew point: 66 °F

Location of BarquisimetoLocation

Historic Weather in Barquisimeto — Graph

°F

Barquisimeto temperature yesterday

Maximum temperature yesterday: 88 °F (at 2:30 PM)
Minimum temperature yesterday: 70 °F (at 5:30 AM)
Average temperature yesterday: 78 °F

Past Weeks' High & Low Weather Summary

 TemperatureHumidityPressure
High88 °F (Jul 24, 2:30 PM)100% (Jul 16, 4:30 AM)30.09 "Hg (Jul 16, 4:30 AM)
Low70 °F (Jul 16, 4:30 AM)31% (Jul 23, 3:30 PM)29.95 "Hg (Jul 20, 4:30 PM)
Average77 °F74%30.03 "Hg
* Reported Jul 15 8:30 AM — Jul 30 8:30 AM, Barquisimeto, Weather by CustomWeather, © 2015

Note: Actual official high and low records may vary slightly from our data, if they occured in-between our weather recording intervals... More about our weather records

Advertising

Barquisimeto weather history for previous 24 hours

 ConditionsComfort  
Time TempWeatherWind HumidityBarometerVisibility
8:30 AM
Thu, Jul 30
73 °FScattered showers. Partly sunny.6 mph78%30.04 "HgN/A
7:30 AM72 °FPartly sunny.3 mph83%30.04 "HgN/A
6:30 AM70 °FPartly sunny.7 mph88%30.01 "HgN/A
5:30 AM70 °FPartly sunny.5 mph88%30.01 "HgN/A
4:30 AM70 °FPassing clouds.3 mph88%30.01 "HgN/A
1:30 AM72 °FPassing clouds.9 mph83%30.07 "HgN/A
10:30 PM
Wed, Jul 29
73 °FPassing clouds.8 mph83%30.04 "HgN/A
9:30 PM73 °FPassing clouds.14 mph83%30.01 "HgN/A
8:30 PM75 °FPassing clouds.12 mph78%29.98 "HgN/A
7:30 PM75 °FPassing clouds.14 mph78%29.98 "HgN/A
6:30 PM79 °FPassing clouds.13 mph70%29.98 "HgN/A
5:30 PM81 °FScattered clouds.12 mph66%29.95 "HgN/A
4:30 PM84 °FScattered clouds.14 mph55%29.95 "HgN/A
3:30 PM86 °FPartly sunny.14 mph52%29.98 "HgN/A
2:30 PM88 °FPartly sunny.12 mph49%30.01 "HgN/A
1:30 PM86 °FPartly sunny.10 mph52%30.01 "HgN/A
12:30 PM86 °FScattered clouds.15 mph49%30.04 "HgN/A
11:30 AM84 °FScattered clouds.14 mph55%30.07 "HgN/A
10:30 AM81 °FScattered clouds.17 mph62%30.07 "HgN/A
Weather by CustomWeather, © 2015

See weather overviewHow to use our weather pages